Weather History for Koeln, Germany

Change the Weather History Date:

Tuesday, February 5, 2013

  Actual Average Record
Temperature  
Mean Temperature 34 °F -  
Max Temperature 41 °F 44 °F 59 °F (2004)
Min Temperature 28 °F 32 °F 12 °F (2012)
Degree Days  
Heating Degree Days 30    
Moisture  
Dew Point 32 °F    
Average Humidity 79    
Maximum Humidity 100    
Minimum Humidity 59    
Precipitation  
Precipitation 0.20 in - - ()
Sea Level Pressure  
Sea Level Pressure 29.57 in    
Wind  
Wind Speed 11 mph ()    
Max Wind Speed 26 mph    
Max Gust Speed 43 mph    
Visibility 7.8 miles    
Events Rain , Snow    
Averages and records for this station are not official NWS values.
T = Trace of Precipitation, MM = Missing Value Source: Averaged Metar Reports

Daily Weather History Graph

Daily Weather History Graph

Search for Another Location

Airport:

Trip Planner

Search our weather history database for the weather conditions in past years. The results will help you decide how hot, cold, wet, or windy it might be!

Date:

Astronomy

Feb. 05, 2013 Rise Set
Actual Time 8:01 AM CET 5:30 PM CET
Civil Twilight 7:26 AM CET 6:05 PM CET
Nautical Twilight 6:46 AM CET 6:44 PM CET
Astronomical Twilight 6:08 AM CET 7:22 PM CET
Moon 3:37 AM CET (2/5) 12:19 PM CET (2/5)
Length of Visible Light 10h 39m
Length of Day
9h 29m
Waning Crescent, 29% of the Moon is Illuminated
Feb 5
Waning Crescent
Feb 10
New
Feb 17
First Quarter
Feb 25
Full
Mar 4
Last Quarter

Hourly Weather History & Observations

Time (CET) Temp. Windchill Dew Point Humidity Pressure Visibility Wind Dir Wind Speed Gust Speed Precip Events Conditions
12:00 AM 42 °F - 36 °F 73% 29.83 in 16 mi SW 8.9 mph - -   Overcast
12:20 AM 42.8 °F 36.2 °F 37.4 °F 81% 29.80 in 6.2 mi SW 12.7 mph - N/A   Mostly Cloudy
12:50 AM 42.8 °F 37.0 °F 37.4 °F 81% 29.77 in 6.2 mi SW 10.4 mph - N/A   Mostly Cloudy
1:00 AM 43 °F - 37 °F 72% 29.81 in 19 mi SW 8.9 mph - -   Partly Cloudy
1:20 AM 42.8 °F 36.2 °F 37.4 °F 81% 29.77 in 6.2 mi WSW 12.7 mph - N/A   Mostly Cloudy
1:50 AM 42.8 °F 35.4 °F 37.4 °F 81% 29.77 in 6.2 mi WSW 15.0 mph - N/A   Mostly Cloudy
2:00 AM 44 °F - 36 °F 66% 29.78 in 19 mi WSW 11.2 mph - -   Overcast
2:20 AM 42.8 °F 35.4 °F 35.6 °F 76% 29.74 in 6.2 mi WSW 15.0 mph - N/A   Mostly Cloudy
2:50 AM 42.8 °F 35.1 °F 35.6 °F 76% 29.74 in 6.2 mi WSW 16.1 mph - N/A   Mostly Cloudy
3:00 AM 43 °F - 35 °F 66% 29.76 in 19 mi WSW 13.4 mph - -   Overcast
3:20 AM 42.8 °F 38.0 °F 35.6 °F 76% 29.71 in 6.2 mi WSW 8.1 mph 19.6 mph N/A   Mostly Cloudy
3:50 AM 42.8 °F 35.4 °F 35.6 °F 76% 29.71 in 6.2 mi WSW 15.0 mph - N/A   Mostly Cloudy
4:00 AM 43 °F - 35 °F 63% 29.72 in 22 mi WSW 13.4 mph - -   Overcast
4:20 AM 42.8 °F 36.2 °F 33.8 °F 70% 29.68 in 6.2 mi SW 12.7 mph - N/A   Mostly Cloudy
4:50 AM 41.0 °F 34.7 °F 33.8 °F 76% 29.65 in 6.2 mi SW 10.4 mph - N/A   Mostly Cloudy
5:00 AM 42 °F - 34 °F 64% 29.68 in 25 mi SW 8.9 mph - -   Mostly Cloudy
5:20 AM 41.0 °F 36.4 °F 33.8 °F 76% 29.62 in 6.2 mi SSW 6.9 mph - N/A   Scattered Clouds
5:50 AM 39.2 °F 34.2 °F 33.8 °F 81% 29.62 in 6.2 mi South 6.9 mph - N/A   Scattered Clouds
6:00 AM 40 °F - 33 °F 68% 29.64 in 31 mi South 6.7 mph - -   Partly Cloudy
6:20 AM 39.2 °F 32.0 °F 33.8 °F 81% 29.56 in - SSW 11.5 mph - N/A   Clear
6:50 AM 39.2 °F 32.0 °F 33.8 °F 81% 29.56 in 6.2 mi South 11.5 mph - N/A   Mostly Cloudy
7:00 AM 40 °F - 34 °F 70% 29.59 in 31 mi SSW 11.2 mph - -   Mostly Cloudy
7:20 AM 41.0 °F 33.5 °F 33.8 °F 76% 29.53 in 6.2 mi SSW 13.8 mph - N/A Rain Light Rain Showers
7:50 AM 39.2 °F 32.0 °F 35.6 °F 87% 29.53 in 6.2 mi SSW 11.5 mph - N/A   Mostly Cloudy
8:00 AM 40 °F - 36 °F 78% 29.54 in 14 mi SW 11.2 mph - - Rain Light Rain Showers
8:20 AM 39.2 °F 30.8 °F 37.4 °F 93% 29.50 in 5.6 mi SW 15.0 mph 28.8 mph N/A Rain Rain Showers
8:50 AM 37.4 °F 25.6 °F 35.6 °F 93% 29.53 in 6.2 mi WSW 26.5 mph 38.0 mph N/A Rain Light Rain Showers
9:00 AM 37 °F - 35 °F 90% 29.55 in 11 mi WSW 20.1 mph - - Rain Light Rain Showers
9:20 AM 37.4 °F 27.8 °F 35.6 °F 93% 29.53 in 6.2 mi WSW 17.3 mph - N/A   Mostly Cloudy
9:50 AM 37.4 °F 29.3 °F 35.6 °F 93% 29.53 in 6.2 mi WSW 12.7 mph - N/A   Mostly Cloudy
10:00 AM 38 °F - 35 °F 82% 29.55 in 31 mi WSW 8.9 mph - - Rain Light Rain Showers
10:20 AM 37.4 °F 27.5 °F 33.8 °F 87% 29.53 in 6.2 mi West 18.4 mph - N/A   Scattered Clouds
10:50 AM 39.2 °F 30.5 °F 33.8 °F 81% 29.53 in 6.2 mi West 16.1 mph 31.1 mph N/A   Scattered Clouds
11:00 AM 39 °F - 34 °F 75% 29.56 in 31 mi West 17.9 mph - -   Partly Cloudy
11:20 AM 41.0 °F 32.8 °F 33.8 °F 76% 29.53 in 6.2 mi West 16.1 mph 29.9 mph N/A   Scattered Clouds
11:50 AM 35.6 °F 23.4 °F 30.2 °F 81% 29.56 in 3.7 mi WNW 25.3 mph 42.6 mph N/A Rain Light Rain Showers
12:20 PM 35.6 °F 25.2 °F 30.2 °F 81% 29.56 in 5.0 mi West 18.4 mph - N/A Rain Light Rain Showers
12:50 PM 33.8 °F 22.2 °F 32.0 °F 93% 29.56 in 2.2 mi WSW 20.7 mph - N/A Rain , Snow Light Rain Showers
1:00 PM 34 °F - 31 °F 86% 29.57 in 2 mi WSW 15.7 mph - - Snow Light Snow Showers
1:20 PM 33.8 °F 25.3 °F 33.8 °F 100% 29.53 in 6.2 mi WSW 11.5 mph - N/A Rain , Snow Light Rain Showers
1:50 PM 35.6 °F 27.1 °F 35.6 °F 100% 29.53 in 6.2 mi WNW 12.7 mph 24.2 mph N/A Rain , Snow Rain Showers
2:00 PM 37 °F - 35 °F 87% 29.54 in 10 mi West 8.9 mph - - Snow Light Snow Showers
2:20 PM 39.2 °F 31.2 °F 35.6 °F 87% 29.50 in 6.2 mi West 13.8 mph - N/A   Scattered Clouds
2:50 PM 39.2 °F 31.2 °F 32.0 °F 75% 29.50 in 6.2 mi West 13.8 mph - N/A   Mostly Cloudy
3:00 PM 40 °F - 31 °F 60% 29.52 in 12 mi West 11.2 mph - -   Mostly Cloudy
3:20 PM 39.2 °F 30.8 °F 30.2 °F 70% 29.47 in 6.2 mi West 15.0 mph - N/A   Mostly Cloudy
3:50 PM 37.4 °F 28.5 °F 30.2 °F 75% 29.47 in 6.2 mi WNW 15.0 mph - N/A Rain Light Rain Showers
4:00 PM 38 °F - 30 °F 63% 29.51 in 10 mi WNW 11.2 mph - -   Mostly Cloudy
4:20 PM 37.4 °F 31.4 °F 30.2 °F 75% 29.47 in 6.2 mi WSW 8.1 mph - N/A   Mostly Cloudy
4:50 PM 37.4 °F 29.3 °F 28.4 °F 70% 29.47 in 6.2 mi WSW 12.7 mph - N/A   Mostly Cloudy
5:00 PM 38 °F - 29 °F 59% 29.48 in 12 mi WSW 8.9 mph - -   Partly Cloudy
5:20 PM 37.4 °F 28.5 °F 30.2 °F 75% 29.47 in 6.2 mi SW 15.0 mph - N/A   Mostly Cloudy
5:50 PM 35.6 °F 28.6 °F 30.2 °F 81% 29.47 in 6.2 mi SW 9.2 mph - N/A   Mostly Cloudy
6:00 PM 36 °F - 30 °F 73% 29.49 in 11 mi WSW 8.9 mph - -   Partly Cloudy
6:20 PM 35.6 °F 29.9 °F 30.2 °F 81% 29.47 in 6.2 mi SSW 6.9 mph - N/A   Scattered Clouds
6:50 PM 33.8 °F 29.6 °F 30.2 °F 87% 29.47 in 6.2 mi SSW 4.6 mph - N/A   Scattered Clouds
7:00 PM 35 °F - 29 °F 72% 29.48 in 19 mi South 4.5 mph - -   Partly Cloudy
7:20 PM 33.8 °F 27.7 °F 28.4 °F 81% 29.47 in 6.2 mi SW 6.9 mph - N/A   Scattered Clouds
7:50 PM 33.8 °F 27.7 °F 28.4 °F 81% 29.47 in 6.2 mi WSW 6.9 mph - N/A   Scattered Clouds
8:00 PM 34 °F - 28 °F 72% 29.49 in 25 mi WSW 4.5 mph - -   Partly Cloudy
8:20 PM 33.8 °F 27.0 °F 28.4 °F 81% 29.47 in 6.2 mi WSW 8.1 mph - N/A   Mostly Cloudy
8:50 PM 33.8 °F 25.3 °F 30.2 °F 87% 29.47 in 6.2 mi WSW 11.5 mph - N/A   Mostly Cloudy
9:00 PM 35 °F - 29 °F 73% 29.50 in 12 mi SW 8.9 mph - - Snow Light Snow Showers
9:20 PM 33.8 °F 27.7 °F 28.4 °F 81% 29.47 in 6.2 mi SSW 6.9 mph - N/A   Scattered Clouds
9:50 PM 32.0 °F 25.6 °F 28.4 °F 87% 29.47 in 6.2 mi South 6.9 mph - N/A   Scattered Clouds
10:00 PM 32 °F - 28 °F 77% 29.50 in 25 mi South 6.7 mph - -   Partly Cloudy
10:20 PM 32.0 °F 24.8 °F 28.4 °F 87% 29.47 in - South 8.1 mph - N/A   Clear
10:50 PM 30.2 °F 23.4 °F 26.6 °F 86% 29.47 in - SSE 6.9 mph - N/A   Clear
11:00 PM 30 °F - 27 °F 85% 29.50 in 25 mi SSE 6.7 mph - -  
11:20 PM 28.4 °F 20.4 °F 26.6 °F 93% 29.47 in - SSE 8.1 mph - N/A   Clear
11:50 PM 30.2 °F 21.9 °F 26.6 °F 86% 29.47 in 6.2 mi SSE 9.2 mph - N/A   Partly Cloudy